Regional Weather Roundup
Issued by NWS

Home | Current Version | Previous Version | Graphics & Text | Print | Product List | Glossary On
Versions: 1 2 3 4 5 6 7 8 9 10 11 12 13 14 15 16 17 18 19 20 21 22 23 24 25 26 27 28 29 30 31 32 33 34 35 36 37 38 39 40 41 42 43 44 45 46 47 48 49 50
000
ASUS43 KMPX 020810
RWRMN
WEATHER ROUNDUP FOR MINNESOTA
NATIONAL WEATHER SERVICE TWIN CITIES/CHANHASSEN MN
300 AM CDT WED SEP 02 2015


NOTE: "FAIR" INDICATES FEW OR NO CLOUDS BELOW 12,000 FEET WITH NO
SIGNIFICANT WEATHER AND/OR OBSTRUCTIONS TO VISIBILITY. N/A MEANS
CURRENT SKY AND/OR WEATHER CONDITIONS ARE NOT AVAILABLE.

MNZ060>063-068>070-020900-
   Twin Cities Metro

CITY           SKY/WX    TMP DP  RH WIND       PRES   REMARKS
TWIN CITIES    LGT RAIN  76  73  91 CALM      29.92S
ST PAUL        LGT RAIN  74  73  97 CALM      29.91S FOG
CRYSTAL        LGT RAIN  76  73  91 SW3       29.90S FOG
BLAINE         RAIN      75  75 100 S3        29.91F
LAKEVILLE      CLOUDY    72  72 100 CALM      29.93R
EDEN PRAIRIE   LGT RAIN  76  72  87 SW13      29.92R FOG
SOUTH ST PAUL  LGT RAIN  74  72  93 CALM      29.91S
LAKE ELMO      LGT RAIN  73  72  94 CALM      29.92F
$$
MNZ001>005-007-008-013>017-022>024-027-028-020900-
   Northwest Minnesota

CITY           SKY/WX    TMP DP  RH WIND       PRES   REMARKS
BEMIDJI        CLEAR     64  60  88 CALM      29.90S
HALLOCK        CLEAR     66  57  72 SE9       29.81S
ROSEAU         CLEAR     59  54  82 S5        29.85S
WARROAD        CLEAR     63  57  82 CALM      29.86S
THIEF RVR FALL CLEAR     64  61  88 SE5       29.85F
CROOKSTON      CLEAR     66  63  88 SE7       29.83F
FOSSTON        CLEAR     63  55  77 E3        29.87S
DETROIT LAKES  PTCLDY    70  68  94 SE6       29.89F FOG
MOORHEAD       CLEAR     70  70 100 S9        29.84S FOG
PARK RAPIDS    PTCLDY    68  65  90 SE3       29.90S
MAHNOMEN       FAIR      67  65  94 SE6       29.86S
$$
MNZ006-009>011-018-025>026-020900-
   North Central Minnesota

CITY           SKY/WX    TMP DP  RH WIND       PRES   REMARKS
BAUDETTE       CLEAR     58  54  86 SE5       29.88S
FLAG ISLAND    CLEAR     68  63  83 SE6       29.86S
INTL FALLS     CLEAR     51  51 100 SE3       29.91S
WASKISH        CLEAR     63  55  77 SE3       29.89R
BIG FORK       PTCLDY    57  55  94 CALM      29.92S
LONGVILLE      MOCLDY    61  61 100 CALM      29.91S
GRAND RAPIDS     N/A     66  59  77 E3        29.92S
CRANE LAKE     CLEAR     48  48 100 CALM      29.95R
ORR            CLEAR     54  52  94 CALM      29.90F
COOK           CLEAR     54  54 100 CALM      29.93S
WALKER         FAIR      63  62  98 CALM      29.90S
$$
MNZ012-019>021-037-020900-
   Northeast Minnesota

CITY           SKY/WX    TMP DP  RH WIND       PRES   REMARKS
DULUTH         CLOUDY    71  68  90 E7        29.92F FOG
ELY            PTCLDY    54  52  94 CALM      29.95S
HIBBING        PTCLDY    62  59  90 CALM      29.93S
EVELETH        MOCLDY    61  59  94 CALM      29.94F
DULUTH HARBOR  LGT RAIN  64  63  94 E14       29.89F
TWO HARBORS    CLOUDY    66  63  88 CALM      29.92S
SILVER BAY     MOCLDY    61  57  88 CALM      29.92S
GRAND MARAIS     N/A     57  54  89 CALM      29.93F
G MARAIS ARPRT PTCLDY    55  48  76 NW5       29.99R
$$
MNZ029>031-032-039>041-046>048-054>057-064-020900-
   West Central Minnesota

CITY           SKY/WX    TMP DP  RH WIND       PRES   REMARKS
FERGUS FALLS   CLEAR     70  70 100 S8        29.86S FOG
WHEATON        CLEAR     64  63  94 S10       29.86S
MORRIS         PTCLDY    64  63  94 SE5       29.87F
ALEXANDRIA     MOCLDY    70  66  87 SW10      29.91F
ELBOW LAKE     FAIR      67  64  91 SE12      29.87F
WADENA           N/A     66  66 100 SE3       29.90S FOG
GLENWOOD       CLOUDY    66  64  94 S5        29.90F
APPLETON       PTCLDY    68  63  83 SE3       29.86S
BENSON         CLOUDY    68  61  77 S10G17    29.87F
ORTONVILLE     PTCLDY    64  63  94 SE5       29.86F
MADISON        MOCLDY    66  64  94 S5        29.86F
WILLMAR        CLOUDY    70  66  88 SE8       29.91S
$$
MNZ033>034-036-042>043-049>051-058-059-020900-
   Central Minnesota

CITY           SKY/WX    TMP DP  RH WIND       PRES   REMARKS
ST CLOUD       LGT RAIN  73  73 100 SE10      29.89F FOG
SAUK CENTRE    FAIR      70  69  96 CALM      29.90S
PAYNESVILLE    CLOUDY    71  68  91 SE3       29.91S
AITKIN         CLOUDY    73  68  83 S5        29.90S
PINE RIVER     MOCLDY    64  64 100 CALM      29.94F FOG
BRAINERD       CLOUDY    72  68  87 SE3       29.91F
STAPLES        MOCLDY    66  66 100 CALM      29.90S FOG
LONG PRAIRIE   MOCLDY    70  68  94 CALM      29.91S
LITTLE FALLS   CLOUDY    72  68  88 CALM      29.90F
LITCHFIELD     CLOUDY    72  70  94 SW9       29.93R
BUFFALO        TSTM      74  72  91 S10G16    29.94R
MAPLE LAKE     CLOUDY    74  73  96 S8        29.93R
$$
MNZ037-044-045-052-053-020900-
   East Central Minnesota

CITY           SKY/WX    TMP DP  RH WIND       PRES   REMARKS
PRINCETON      LGT RAIN  75  73  94 CALM      29.91F
MORA           LGT RAIN  70  70 100 S3        29.93S
CAMBRIDGE      LGT RAIN  75  66  73 CALM      29.90F
RUSH CITY      LGT RAIN  73  72  94 W3        29.92R
MOOSE LAKE     CLOUDY    70  68  94 CALM      29.91R FOG
HINCKLEY       LGT RAIN  72  72 100 CALM      29.92S
CLOQUET        CLOUDY    70  66  88 S5        29.94R FOG
MCGREGOR       CLOUDY    72  70  94 S6        29.92S
$$
MNZ071>073-080-081-089-090-097-098-020900-
   Southwest Minnesota

CITY           SKY/WX    TMP DP  RH WIND       PRES   REMARKS
MONTEVIDEO     CLOUDY    66  63  88 S9        29.88F
GRANITE FALLS  TSTM      66  64  93 S5        29.90R
CANBY          PTCLDY    66  62  85 SE3       29.88R
MARSHALL       MOCLDY    66  57  72 SE13      29.88F
REDWOOD FALLS  CLOUDY    67  63  87 SE9       29.89S
OLIVIA         LGT RAIN  64  61  88 SE16G22   29.89F
PIPESTONE      CLEAR     66  64  94 E6        29.88F
WINDOM         MOCLDY    68  64  88 NE10      29.91F
WORTHINGTON    CLEAR     72  64  78 S9        29.88F
JACKSON        PTCLDY    72  70  94 SE3       29.91S
TRACY          MOCLDY    66  63  90 SE6       29.89F
SLAYTON        PTCLDY    65  64  99 CALM      29.91S
$$
MNZ065>067-074>077-082>085-091>093-020900-
   South Central Minnesota

CITY           SKY/WX    TMP DP  RH WIND       PRES   REMARKS
MANKATO        CLOUDY    72  66  83 W17G24    29.98R THUNDER
NEW ULM        TSTM      64  63  94 SE7       29.93F
ST JAMES       CLOUDY    70  68  94 NE8       29.93R
FAIRMONT       CLOUDY    75  64  69 S13       29.89S
GLENCOE        TSTM      68  67  97 SW10G22   29.96R
FARIBAULT      CLOUDY    73  70  88 SW3       29.94S
OWATONNA       CLOUDY    75  70  83 S7        29.93F
WASECA         RAIN      72  68  88 SW5       29.95R
ALBERT LEA     LGT RAIN  73  70  88 S5        29.94S
$$
MNZ078>079-086>088-094>096-020900-
   Southeast Minnesota

CITY           SKY/WX    TMP DP  RH WIND       PRES   REMARKS
ROCHESTER      MOCLDY    72  69  90 S10       29.96F
RED WING       CLOUDY    72  72 100 CALM      29.91S
STANTON        CLOUDY    74  70  85 CALM      29.92R
DODGE CENTER   CLOUDY    73  68  83 S12       29.95S
WINONA         MOCLDY    73  72  94 CALM      29.94S FOG
AUSTIN         MOCLDY    73  70  88 S5        29.95S
PRESTON        MOCLDY    71  67  89 S6        29.98S
$$
ABBREVIATIONS USED IN REMARKS
   TC - TEMPERATURES IN CELSIUS
  WCI - WIND CHILL INDEX
   HX - HEAT INDEX
  VSB - VISIBILITY
$$



USA.gov is the U.S. government's official web portal to all federal, state and local government web resources and services.